TimePST,TemperatureF,Dew PointF,Humidity,Sea Level PressureIn,VisibilityMPH,Wind Direction,Wind SpeedMPH,Gust SpeedMPH,PrecipitationIn,Events,Conditions,WindDirDegrees,DateUTC
12:53 AM,48.0,46.0,93,30.24,10.0,NNE,3.5,-,N/A,,Partly Cloudy,20,2013-02-16 08:53:00
1:53 AM,48.0,46.9,96,30.24,10.0,Calm,Calm,-,N/A,,Partly Cloudy,0,2013-02-16 09:53:00
2:53 AM,51.1,51.1,100,30.22,10.0,Calm,Calm,-,N/A,,Scattered Clouds,0,2013-02-16 10:53:00
3:53 AM,51.1,51.1,100,30.20,10.0,NW,3.5,-,N/A,,Partly Cloudy,310,2013-02-16 11:53:00
4:53 AM,46.9,46.0,97,30.20,10.0,Calm,Calm,-,N/A,,Partly Cloudy,0,2013-02-16 12:53:00
5:53 AM,46.0,46.0,100,30.20,10.0,Calm,Calm,-,N/A,,Clear,0,2013-02-16 13:53:00
6:53 AM,51.1,51.1,100,30.20,10.0,South,4.6,-,N/A,,Mostly Cloudy,180,2013-02-16 14:53:00
7:53 AM,46.9,46.9,100,30.21,7.0,Calm,Calm,-,N/A,,Mostly Cloudy,0,2013-02-16 15:53:00
8:53 AM,55.9,50.0,80,30.22,8.0,Calm,Calm,-,N/A,,Mostly Cloudy,0,2013-02-16 16:53:00
9:53 AM,57.0,52.0,83,30.21,7.0,SW,4.6,-,N/A,,Mostly Cloudy,230,2013-02-16 17:53:00
10:53 AM,57.0,55.0,93,30.20,7.0,WSW,4.6,-,N/A,,Mostly Cloudy,250,2013-02-16 18:53:00
11:53 AM,61.0,48.9,64,30.19,9.0,WNW,4.6,-,N/A,,Mostly Cloudy,290,2013-02-16 19:53:00
12:53 PM,62.1,45.0,53,30.16,9.0,WSW,3.5,-,N/A,,Mostly Cloudy,240,2013-02-16 20:53:00
1:53 PM,64.0,46.0,52,30.13,10.0,West,5.8,-,N/A,,Mostly Cloudy,270,2013-02-16 21:53:00
2:53 PM,69.1,46.9,45,30.10,10.0,NW,9.2,-,N/A,,Mostly Cloudy,310,2013-02-16 22:53:00
3:53 PM,66.9,46.9,49,30.09,10.0,WNW,10.4,-,N/A,,Mostly Cloudy,300,2013-02-16 23:53:00
4:53 PM,66.9,48.0,51,30.08,10.0,NW,11.5,-,N/A,,Scattered Clouds,310,2013-02-17 00:53:00
5:12 PM,62.6,51.8,68,30.08,10.0,WNW,10.4,-,N/A,,Mostly Cloudy,300,2013-02-17 01:12:00
5:53 PM,59.0,54.0,83,30.09,10.0,WNW,8.1,-,N/A,,Scattered Clouds,290,2013-02-17 01:53:00
6:53 PM,55.9,53.1,90,30.09,10.0,WNW,9.2,-,N/A,,Partly Cloudy,290,2013-02-17 02:53:00
7:53 PM,55.0,54.0,96,30.09,10.0,West,8.1,-,N/A,,Partly Cloudy,280,2013-02-17 03:53:00
8:53 PM,54.0,54.0,100,30.09,10.0,West,11.5,-,N/A,,Partly Cloudy,280,2013-02-17 04:53:00
9:53 PM,52.0,52.0,100,30.10,10.0,WNW,10.4,-,N/A,,Partly Cloudy,290,2013-02-17 05:53:00
10:53 PM,52.0,52.0,100,30.09,10.0,West,10.4,-,N/A,,Partly Cloudy,280,2013-02-17 06:53:00
11:53 PM,52.0,52.0,100,30.08,10.0,West,10.4,-,N/A,,Partly Cloudy,270,2013-02-17 07:53:00